This demonstration page uses our WeatherBlox Daily Observations layout. Learn more.

Left ArrowRight Arrow

Hourly Observations for March 7, 2015

Temp ( °F °C ) Dew Point ( °F °C ) Humidity (%) Winds ( mph kmh ) Pressure ( in mb ) Visibility ( mi km ) Precip ( " mm )
12:51 am 00:51 Clear 51 10.6 11 -11.7 20 20 SE 9 15 30.08 1019 10 16 0.00 0.00
1:51 am 01:51 Clear 47 8.3 15 -9.4 28 28 E 9 15 30.08 1019 10 16 0.00 0.00
2:51 am 02:51 Clear 50 10 10 -12.2 20 20 ESE 12 19 30.06 1018 10 16 0.00 0.00
3:51 am 03:51 Clear 48 8.9 11 -11.7 22 22 ESE 10 17 30.06 1018 10 16 0.00 0.00
4:51 am 04:51 Clear 48 8.9 12 -11.1 23 23 SE 12 19 30.06 1018 10 16 0.00 0.00
5:51 am 05:51 Clear 48 8.9 11 -11.7 22 22 SE 13 20 30.08 1019 10 16 0.00 0.00
6:51 am 06:51 Sunny 48 8.9 11 -11.7 22 22 E 10 17 30.10 1019 10 16 0.00 0.00
7:51 am 07:51 Sunny 51 10.6 12 -11.1 21 21 ESE 10 17 30.11 1020 10 16 0.00 0.00
8:51 am 08:51 Sunny 56 13.3 20 -6.7 24 24 ESE 10 17 30.13 1020 10 16 0.00 0.00
9:51 am 09:51 Sunny 58 14.4 22 -5.6 25 25 E 7 11 30.11 1020 10 16 0.00 0.00
10:51 am 10:51 Sunny 62 16.7 23 -5 22 22 E 7 11 30.09 1019 10 16 0.00 0.00
11:51 am 11:51 Sunny 64 17.8 25 -3.9 23 23 SSE 10 17 30.06 1018 10 16 0.00 0.00
12:51 pm 12:51 Sunny 67 19.4 28 -2.2 23 23 E 7 11 30.01 1016 10 16 0.00 0.00
1:51 pm 13:51 Sunny 69 20.6 29 -1.7 22 22 SSE 6 9 29.97 1015 10 16 0.00 0.00
2:51 pm 14:51 Sunny 71 21.7 30 -1.1 22 22 S 8 13 29.93 1014 10 16 0.00 0.00
3:51 pm 15:51 Sunny 72 22.2 31 -0.6 22 22 SE 10 17 29.92 1013 10 16 0.00 0.00
4:51 pm 16:51 Sunny 71 21.7 28 -2.2 20 20 S 6 9 29.91 1013 10 16 0.00 0.00
5:51 pm 17:51 Sunny 69 20.6 30 -1.1 23 23 S 3 6 29.91 1013 10 16 0.00 0.00
6:51 pm 18:51 Clear 64 17.8 32 0 30 30 ESE 5 7 29.93 1013 10 16 0.00 0.00
7:51 pm 19:51 Clear 64 17.8 30 -1.1 28 28 SE 7 11 29.93 1014 10 16 0.00 0.00
8:51 pm 20:51 Clear 57 13.9 31 -0.6 37 37 ESE 3 6 29.94 1014 10 16 0.00 0.00
9:51 pm 21:51 Clear 54 12.2 31 -0.6 42 42 E 5 7 29.95 1014 10 16 0.00 0.00
10:51 pm 22:51 Clear 54 12.2 32 0 43 43 E 7 11 29.95 1014 10 16 0.00 0.00
11:51 pm 23:51 Clear 51 10.6 32 0 48 48 ESE 6 9 29.94 1014 10 16 0.00 0.00

Powered by AerisWeather